This demonstration page uses our WeatherBlox Daily Observations layout. Learn more.

39.29038, -76.61219

Hourly Observations for April 7, 2018

Temp ( °F °C ) Dew Point ( °F °C ) Humidity (%) Winds ( mph kmh ) Pressure ( in mb ) Visibility ( mi km ) Precip ( " mm )
12:54 am 00:54 undefined 61 16.1 35 1.7 38 38 undefined N/A 29.7 1006 N/A 0 0
1:54 am 01:54 undefined 59 15 38 3.3 46 46 undefined N/A 29.72 1006 N/A 0 0
2:54 am 02:54 undefined 56 13.3 38 3.3 51 51 undefined N/A 29.74 1007 N/A 0 0
3:54 am 03:54 undefined 52 11.1 33 0.6 49 49 undefined N/A 29.78 1008 N/A 0 0
4:54 am 04:54 undefined 51 10.6 32 0 48 48 undefined N/A 29.81 1009 N/A 0 0
5:54 am 05:54 undefined 49 9.4 30 -1.1 48 48 undefined N/A 29.84 1011 N/A 0 0
6:54 am 06:54 undefined 46 7.8 30 -1.1 54 54 undefined N/A 29.88 1012 N/A 0 0
7:54 am 07:54 undefined 44 6.7 26 -3.3 49 49 undefined N/A 29.92 1013 N/A 0 0
8:54 am 08:54 undefined 43 6.1 23 -5 45 45 undefined N/A 29.93 1014 N/A 0 0
9:54 am 09:54 undefined 43 6.1 24 -4.4 47 47 undefined N/A 29.94 1014 N/A 0 0
10:54 am 10:54 undefined 43 6.1 20 -6.7 40 40 undefined N/A 29.96 1015 N/A 0 0
11:54 am 11:54 undefined 43 6.1 14 -10 31 31 undefined N/A 29.97 1015 N/A 0 0
12:54 pm 12:54 undefined 43 6.1 13 -10.6 29 29 undefined N/A 29.96 1015 N/A 0 0
1:54 pm 13:54 undefined 44 6.7 10 -12.2 25 25 undefined N/A 29.94 1014 N/A 0 0
2:54 pm 14:54 undefined 45 7.2 13 -10.6 27 27 undefined N/A 29.93 1014 N/A 0 0
3:54 pm 15:54 undefined 45 7.2 12 -11.1 26 26 undefined N/A 29.91 1013 N/A 0 0
4:54 pm 16:54 undefined 45 7.2 13 -10.6 27 27 undefined N/A 29.93 1014 N/A 0 0
5:54 pm 17:54 undefined 44 6.7 13 -10.6 28 28 undefined N/A 29.94 1014 N/A 0 0
6:54 pm 18:54 undefined 44 6.7 13 -10.6 28 28 undefined N/A 29.93 1014 N/A 0 0
7:54 pm 19:54 undefined 44 6.7 13 -10.6 28 28 undefined N/A 29.93 1014 N/A 0 0
8:54 pm 20:54 undefined 44 6.7 14 -10 30 30 undefined N/A 29.93 1014 N/A 0 0
9:54 pm 21:54 undefined 44 6.7 14 -10 30 30 undefined N/A 29.93 1014 N/A 0 0
10:54 pm 22:54 undefined 43 6.1 14 -10 31 31 undefined N/A 29.93 1014 N/A 0 0
11:54 pm 23:54 undefined 42 5.6 15 -9.4 33 33 undefined N/A 29.92 1013 N/A 0 0

Powered by AerisWeather